Tracking 19247 objects as of 22-Sep-2018
HD Live streaming from Space Station
objects crossing your sky now

FENGYUN 1C DEB

Track FENGYUN 1C DEB now!
10-day predictions


NORAD ID: 31239
Int'l Code: 1999-025BLV
Perigee: 839.4 km
Apogee: 916.0 km
Inclination: 98.9 °
Period: 102.4 minutes
Semi major axis: 7248 km
RCS: 0.0092 m2 (small)
Launch date: May 10, 1999
Source: People's Republic of China (PRC)
Launch site: Taiyaun Space Center, China (TSC)

Note: This is SATELLITE DEBRIS
aabbcc
Your satellite tracking list
Your tracking list is empty




NASA's NSSDC Master Catalog

Two Line Element Set (TLE):
1 31239U 99025BLV 18264.89321031 +.00000266 +00000-0 +18357-3 0  9992
2 31239 098.8806 296.1097 0052815 073.6802 050.4164 14.06742400588863
Source of the keplerian elements: AFSPC